[[{"header":{"parameterUnit":"m.s-1","parameterCategory":1,"la1":30.2991,"la2":30.254,"lo1":-89.0895,"lo2":-89.0444,"dy":0.0017,"dx":0.0017,"nx":28,"ny":28,"refTime":"2024-04-11T21:00:00:Z","depth":0,"parameterNumber":2,"parameterNumberName":"U-component_of_WINDS"},"data":[0,0,0,0,0,0,0,0,0,0,0,0,0,0,0,0,0,0,0,0,0,0,0,0,0,0,0,0,0,0,0,0,0,0,0,0,0,0,0,0,0,0,0,0,0,0,0,0,0,0,0,0,0,0,0,0,0,0,0.2285,0.2286,0,0.238,0.2381,0.2382,0.2444,0.2445,0.2445,0.2446,0.2542,0.2544,0.2546,0,0,0,0,0,0,0,0,0,0,0,0,0,0.2156,0.2158,0.2285,0.2286,0.2287,0.238,0.2381,0.2382,0.2444,0.2445,0.2445,0.2446,0.2541,0.2544,0.2547,0,0,0,0,0,0,0,0,0,0,0,0,0,0.2227,0.2159,0.2285,0.2329,0.2334,0.2379,0.2381,0.2383,0.2444,0.2445,0.2445,0.2446,0.2541,0.2544,0.2547,0.2555,0,0,0.2557,0.2558,0,0,0,0,0,0,0,0,0.2223,0.2232,0.2322,0.2326,0.2332,0.2401,0.2371,0.244,0.2444,0.2402,0.2446,0.2446,0.2495,0.2502,0.2518,0.2559,0.2563,0.2557,0.2559,0.2561,0.2562,0,0,0,0,0,0,0,0.2218,0.2228,0.2323,0.2323,0.2329,0.2344,0.2355,0.2384,0.2444,0.2406,0.2411,0.2421,0.2498,0.2515,0.2521,0.2565,0.2557,0.256,0.2562,0.2563,0.2615,0.2614,0,0,0,0,0,0,0.2206,0.2224,0.232,0.2325,0.2278,0.2346,0.2358,0.2378,0.2444,0.2454,0.2421,0.2424,0.2509,0.2517,0.2524,0.2536,0.2561,0.2564,0.2566,0.2615,0.2615,0.2614,0,0,0,0,0,0,0.2203,0.2214,0.2316,0.2276,0.229,0.2348,0.237,0.238,0.2397,0.2455,0.2466,0.2427,0.251,0.252,0.2546,0.2541,0.2565,0.2568,0.2616,0.2615,0.2614,0.2561,0,0,0,0,0,0,0.22,0.2213,0.2217,0.2276,0.2292,0.2336,0.2369,0.2381,0.2403,0.2408,0.2464,0.2474,0.2511,0.2541,0.2549,0.2546,0.2571,0.2617,0.2616,0.2615,0.2564,0.2559,0.2554,0,0,0,0,0,0.2195,0.2199,0.2217,0.2228,0.2298,0.2336,0.2345,0.2388,0.2402,0.2406,0.2443,0.2472,0.254,0.2543,0.2553,0.255,0.2617,0.2616,0.2615,0.2566,0.256,0.2554,0,0,0,0,0,0,0.2138,0.2207,0.2228,0.2252,0.2287,0.2346,0.2353,0.238,0.2413,0.2416,0.2468,0.248,0.25,0.2528,0.2531,0.256,0.2582,0.2583,0.2541,0.2536,0.2531,0.2524,0.2573,0,0,0,0,0,0.2129,0.2154,0.2213,0.2227,0.2244,0.2295,0.2313,0.2343,0.2382,0.2398,0.2436,0.2473,0.2502,0.2521,0.2551,0.2568,0.258,0.2571,0.2566,0.2562,0.2561,0.257,0.2566,0.261,0.261,0.261,0,0,0.2109,0.215,0.2163,0.2217,0.2248,0.2272,0.2308,0.2332,0.235,0.2401,0.2428,0.2458,0.2502,0.2523,0.2534,0.2546,0.2552,0.256,0.2556,0.2558,0.2568,0.2564,0.2561,0.2609,0.2609,0.2609,0,0,0.2085,0.2119,0.2134,0.2164,0.2211,0.2245,0.2248,0.2303,0.2324,0.2352,0.239,0.2412,0.2462,0.2491,0.2513,0.2497,0.2525,0.2506,0.2481,0.2489,0.2485,0.2483,0.2476,0.2473,0.2505,0.2505,0.2505,0,0.2054,0.2093,0.2138,0.216,0.2182,0.2229,0.2244,0.2271,0.2325,0.2339,0.2352,0.2414,0.2447,0.2475,0.2471,0.2487,0.2492,0.25,0.2482,0.248,0.2478,0.2472,0.2469,0.2503,0.2503,0.2503,0.2503,0,0.2052,0.2078,0.2084,0.2135,0.2158,0.2176,0.2223,0.2241,0.2268,0.2299,0.2326,0.2367,0.2406,0.2415,0.2442,0.2445,0.2451,0.2473,0.2496,0.247,0.2465,0.2464,0.2499,0.25,0.25,0.2501,0,0,0.1996,0.207,0.2072,0.2094,0.2148,0.2169,0.2188,0.2226,0.2239,0.2275,0.2291,0.2332,0.2351,0.2375,0.2406,0.2413,0.2396,0.2433,0.2435,0.2424,0.24,0.2383,0.238,0.2414,0.2414,0.2414,0.2396,0,0.1979,0.2017,0.2058,0.2081,0.2105,0.2149,0.2165,0.22,0.2229,0.2253,0.2286,0.2313,0.2338,0.2352,0.2361,0.2396,0.2392,0.2398,0.243,0.243,0.2416,0.2378,0.236,0.2342,0.2395,0.2395,0.2394,0,0.1965,0.1998,0.2023,0.2073,0.2085,0.2099,0.2136,0.2158,0.2197,0.2218,0.2244,0.2276,0.2298,0.2318,0.2347,0.235,0.2366,0.2384,0.2385,0.2389,0.241,0.238,0.2337,0.2333,0.2392,0.2392,0.2392,0,0.192,0.197,0.1991,0.201,0.2069,0.2078,0.2103,0.2143,0.2162,0.2194,0.2207,0.224,0.2259,0.2284,0.2323,0.2335,0.2348,0.2372,0.2365,0.2364,0.2365,0.2365,0.2323,0.2376,0.2376,0.2377,0.2377,0,0.1896,0.191,0.1972,0.1985,0.2,0.2046,0.2061,0.209,0.2124,0.2143,0.2183,0.2199,0.2251,0.2273,0.2305,0.2323,0.2331,0.2348,0.2356,0.2344,0.2342,0.2354,0.2356,0.2376,0.2376,0.2376,0.2376,0,0.1848,0.1891,0.1916,0.197,0.1984,0.1993,0.2039,0.2052,0.2084,0.2106,0.2114,0.2164,0.2192,0.2234,0.2275,0.2296,0.2308,0.2322,0.2295,0.23,0.229,0.2289,0.2254,0.2251,0.2307,0.2306,0.2306,0,0.183,0.1842,0.1896,0.1911,0.1935,0.1959,0.1979,0.2024,0.2043,0.2087,0.2095,0.2126,0.2153,0.2195,0.2234,0.2265,0.2279,0.2265,0.2284,0.2271,0.2277,0.2275,0.2276,0.226,0.2259,0.2258,0.2258,0,0.1793,0.1813,0.184,0.1873,0.1896,0.1924,0.1955,0.1965,0.2017,0.2035,0.2064,0.2085,0.2126,0.2155,0.2191,0.2216,0.2245,0.2251,0.2251,0.2238,0.2221,0.2229,0.2281,0.2252,0.2252,0.2253,0.2253,0.2253,0.1759,0.177,0.181,0.1838,0.1866,0.1893,0.1908,0.1941,0.1966,0.2002,0.2027,0.2054,0.2091,0.2142,0.2166,0.2187,0.2199,0.2199,0.2199,0.2198,0.2193,0.2219,0.2193,0.2194,0.2194,0.2194,0.2194,0,0.1722,0.1749,0.1775,0.1816,0.1838,0.1863,0.1898,0.1914,0.1937,0.197,0.1995,0.2027,0.2056,0.2096,0.2127,0.2136,0.215,0.2143,0.2142,0.2147,0.2181,0.2177,0.2131,0.2131,0.2131,0.2131,0.2131,0.2131,0.1705,0.1725,0.175,0.1783,0.1811,0.1837,0.1855,0.1879,0.1905,0.1939,0.1963,0.1989,0.2025,0.2058,0.2085,0.2096,0.2105,0.2093,0.2108,0.2139,0.2145,0.215,0.2147,0.2095,0.2095,0.2073,0.2072,0.2072]},{"header":{"parameterUnit":"m.s-1","parameterCategory":1,"la1":30.2991,"la2":30.254,"lo1":-89.0895,"lo2":-89.0444,"dy":0.0017,"dx":0.0017,"nx":28,"ny":28,"refTime":"2024-04-11T21:00:00:Z","depth":0,"parameterNumber":3,"parameterNumberName":"V-component_of_WINDS"},"data":[0,0,0,0,0,0,0,0,0,0,0,0,0,0,0,0,0,0,0,0,0,0,0,0,0,0,0,0,0,0,0,0,0,0,0,0,0,0,0,0,0,0,0,0,0,0,0,0,0,0,0,0,0,0,0,0,0,0,3.8374,3.8374,0,3.8381,3.8381,3.8381,3.8403,3.8404,3.8404,3.8405,3.8409,3.8409,3.8409,0,0,0,0,0,0,0,0,0,0,0,0,0,3.8379,3.8378,3.8374,3.8374,3.8374,3.8381,3.8381,3.8381,3.8403,3.8404,3.8405,3.8405,3.841,3.8409,3.8409,0,0,0,0,0,0,0,0,0,0,0,0,0,3.838,3.8378,3.8374,3.8386,3.8387,3.8381,3.8381,3.8381,3.8403,3.8404,3.8405,3.8405,3.841,3.8409,3.8409,3.839,0,0,3.8407,3.8407,0,0,0,0,0,0,0,0,3.838,3.838,3.8384,3.8385,3.8387,3.8392,3.8384,3.8384,3.8403,3.8397,3.8405,3.8406,3.8403,3.8403,3.8403,3.839,3.8391,3.8407,3.8407,3.8406,3.8406,0,0,0,0,0,0,0,3.838,3.838,3.8377,3.8384,3.8386,3.8391,3.8392,3.8384,3.8396,3.8398,3.8399,3.84,3.8404,3.8403,3.8403,3.8391,3.8407,3.8407,3.8406,3.8406,3.8364,3.8363,0,0,0,0,0,0,3.8378,3.8379,3.8376,3.8377,3.8385,3.839,3.8391,3.839,3.8396,3.8397,3.8399,3.8401,3.8404,3.8403,3.8403,3.8382,3.8406,3.8406,3.8406,3.8364,3.8363,3.8363,0,0,0,0,0,0,3.8378,3.8378,3.8376,3.8379,3.8379,3.8389,3.8387,3.8389,3.8389,3.8397,3.8399,3.8397,3.8404,3.8404,3.8393,3.8382,3.8406,3.8405,3.8365,3.8364,3.8363,3.8339,0,0,0,0,0,0,3.8378,3.8378,3.8371,3.8378,3.8379,3.8367,3.8386,3.8389,3.8388,3.839,3.8395,3.8396,3.8405,3.8394,3.8393,3.8382,3.8405,3.8366,3.8365,3.8363,3.834,3.8337,3.8334,0,0,0,0,0,3.8378,3.8363,3.8371,3.837,3.8371,3.8366,3.8366,3.8377,3.8387,3.838,3.8386,3.8396,3.8384,3.8393,3.8392,3.838,3.8367,3.8365,3.8363,3.8342,3.8337,3.8334,0,0,0,0,0,0,3.8354,3.8365,3.8373,3.836,3.8362,3.837,3.8362,3.8371,3.837,3.8372,3.8385,3.8385,3.8373,3.8376,3.8386,3.8363,3.8377,3.8375,3.8361,3.8357,3.8354,3.8353,3.8404,0,0,0,0,0,3.8347,3.8343,3.8352,3.834,3.8341,3.8351,3.8349,3.8357,3.836,3.8361,3.8365,3.8367,3.8363,3.836,3.8357,3.8341,3.8342,3.8333,3.8329,3.8327,3.8324,3.8316,3.8311,3.8357,3.8357,3.8357,0,0,3.8332,3.8338,3.8334,3.8335,3.8338,3.8333,3.8352,3.8345,3.8342,3.8359,3.835,3.8354,3.8356,3.8343,3.8337,3.8344,3.8312,3.8324,3.8322,3.8321,3.8313,3.8309,3.8305,3.8355,3.8356,3.8356,0,0,3.8303,3.8307,3.8298,3.83,3.8304,3.8311,3.8309,3.8316,3.8319,3.831,3.8323,3.8319,3.8312,3.8313,3.8313,3.8285,3.8295,3.8284,3.8265,3.8257,3.8253,3.825,3.824,3.8236,3.8282,3.8282,3.8282,0,3.8285,3.8278,3.8291,3.8284,3.8284,3.8301,3.8291,3.8292,3.8295,3.8294,3.8303,3.8295,3.8298,3.8285,3.8278,3.8278,3.8275,3.8283,3.8253,3.825,3.8247,3.8238,3.8234,3.828,3.828,3.8281,3.8281,0,3.8255,3.825,3.8242,3.8245,3.8244,3.8235,3.8246,3.8243,3.8252,3.8257,3.8248,3.8252,3.825,3.8248,3.8256,3.8236,3.8241,3.8251,3.8266,3.8241,3.8232,3.8229,3.8278,3.8279,3.8279,3.828,0,0,3.821,3.822,3.8217,3.8219,3.8225,3.8221,3.8213,3.8213,3.821,3.8211,3.8204,3.8199,3.8209,3.8208,3.8216,3.8209,3.8187,3.822,3.8221,3.8214,3.8165,3.8157,3.8152,3.8193,3.8193,3.8192,3.8165,0,3.8182,3.817,3.8181,3.8166,3.8162,3.8179,3.8172,3.8174,3.818,3.8177,3.8182,3.8178,3.8192,3.8192,3.8185,3.8191,3.8177,3.8193,3.8187,3.8186,3.8185,3.8148,3.8139,3.8112,3.8161,3.8161,3.816,0,3.8148,3.8148,3.8133,3.8141,3.8139,3.8133,3.8133,3.813,3.8134,3.8138,3.8138,3.8148,3.8141,3.8156,3.8145,3.8156,3.8154,3.8156,3.8155,3.8155,3.8171,3.8145,3.8104,3.81,3.8155,3.8155,3.8156,0,3.8116,3.8113,3.8104,3.8105,3.8113,3.8108,3.8111,3.8116,3.8114,3.8114,3.8114,3.8113,3.8112,3.811,3.812,3.813,3.8108,3.8124,3.8111,3.811,3.8105,3.8105,3.8062,3.8104,3.8104,3.8104,3.8105,0,3.8083,3.8073,3.8089,3.8084,3.8073,3.8086,3.8075,3.808,3.8083,3.8078,3.8093,3.8087,3.8101,3.8097,3.8104,3.8094,3.8093,3.8096,3.8098,3.8095,3.8094,3.8093,3.8095,3.8103,3.8104,3.8104,3.8104,0,3.8045,3.8056,3.8047,3.8056,3.8058,3.805,3.8057,3.8052,3.8059,3.8052,3.8051,3.8062,3.8058,3.8067,3.8065,3.807,3.8055,3.806,3.8054,3.8055,3.8042,3.8042,3.7996,3.7991,3.8037,3.8036,3.8036,0,3.8023,3.8016,3.8025,3.8023,3.8026,3.8022,3.8021,3.8034,3.8033,3.8036,3.803,3.8028,3.8027,3.802,3.8026,3.8025,3.8029,3.8013,3.8029,3.8026,3.8029,3.8029,3.8028,3.801,3.8009,3.8009,3.8008,0,3.7984,3.7989,3.7988,3.7988,3.7987,3.7988,3.799,3.7987,3.8001,3.7998,3.7995,3.7994,3.7992,3.7989,3.7989,3.7991,3.8002,3.8004,3.8,3.7996,3.7993,3.7994,3.8044,3.8004,3.8005,3.8005,3.8005,3.8005,3.7953,3.7947,3.7953,3.7951,3.7953,3.7955,3.795,3.7957,3.7955,3.7954,3.7962,3.7957,3.7961,3.7962,3.7963,3.7959,3.7966,3.7962,3.7961,3.7959,3.7957,3.7994,3.7959,3.7959,3.7959,3.796,3.796,0,3.7913,3.7918,3.7916,3.7918,3.7917,3.7928,3.793,3.7928,3.7924,3.7927,3.7925,3.7921,3.7919,3.7926,3.7924,3.792,3.7924,3.7919,3.7919,3.7919,3.795,3.7953,3.7915,3.7915,3.7915,3.7915,3.7915,3.7915,3.7893,3.7884,3.789,3.7883,3.7887,3.7883,3.7884,3.7885,3.7887,3.7883,3.7881,3.7886,3.789,3.7889,3.7887,3.7889,3.7888,3.788,3.7884,3.7913,3.7917,3.7921,3.7924,3.788,3.788,3.7853,3.7853,3.7852]}]]